Regional Weather Roundup
Issued by NWS

Home | Current Version | Previous Version | Graphics & Text | Print | Product List | Glossary On
Versions: 1 2 3 4 5 6 7 8 9 10 11 12 13 14 15 16 17 18 19 20 21 22 23 24 25 26 27 28 29 30 31 32 33 34 35 36 37 38 39 40 41 42 43 44 45 46 47 48 49 50
000
ASUS45 KTFX 201710
RWRMT
MONTANA REGIONAL WEATHER ROUNDUP
NATIONAL WEATHER SERVICE GREAT FALLS MT
1000 AM MST MON FEB 20 2017

NOTE: "FAIR" INDICATES FEW OR NO CLOUDS BELOW 12000 FEET WITH NO
SIGNIFICANT WEATHER AND/OR OBSTRUCTIONS TO VISIBILITY.

MTZ001>007-043-201800-
WEST OF THE DIVIDE

CITY           SKY/WX    TMP DP  RH WIND       PRES   REMARKS
KALISPELL      CLOUDY    34  30  85 NW5       29.63F
MISSOULA       CLOUDY    35  31  85 SE14      29.65F WCI  26
BUTTE          SUNNY     38  25  59 S15       29.69F WCI  29
MULLAN PASS    SNOW      25  24  96 VRB7      29.52F VSB 1/4 WCI  17
ANACONDA         N/A     41  23  48 S8        29.67F
DEER LODGE       N/A     43  27  52 S6        29.67F
EUREKA           N/A     37  28  70 S7        29.63S
HAMILTON         N/A     34  34 100 CALM      29.65F
LIBBY            N/A     30  30 100 CALM      29.63S VSB 1
PLAINS           N/A     30  25  82 MISG      29.67F VSB 1
$$

MTZ008-052>055-201800-
SOUTHWEST MONTANA

CITY           SKY/WX    TMP DP  RH WIND       PRES   REMARKS
BOZEMAN        MOSUNNY   38  28  67 NW3       29.72F
DILLON         SUNNY     41  26  55 S12       29.72F
W YELLOWSTONE  LGT SNOW  32  28  86 SW7       29.86S VSB 1   WCI  26
ENNIS          PTSUNNY   43  27  52 S33G40    29.80R
THREE FORKS      N/A     48  48 100 S23       29.73F
$$

MTZ009-010-012-014-046-048-049-054-201800-
EAST SLOPES AND CENTRAL MONTANA

CITY           SKY/WX    TMP DP  RH WIND       PRES   REMARKS
CUT BANK       CLOUDY    34  23  64 SE7       29.61F WCI  28
GREAT FALLS    SUNNY     43  23  45 S12       29.65F
MALMSTROM AFB  MOSUNNY   45  24  44 SW15      29.66F
HELENA         SUNNY     33  27  78 N5        29.66F
AUGUSTA          N/A     38  26  59 S18G25    29.60F WCI  29
BOWMANS CRNR     N/A     38  24  56 S21       29.60F WCI  27
CHOTEAU          N/A     43  25  49 S15       29.63F
CONRAD           N/A     37  29  73 CALM      29.68F
POWER            N/A     40  23  49 S15       29.64F
RAYNESFORD     PTSUNNY   43  23  46 SE6       29.66F
ULM              N/A     45  25  45 MISG      29.64F
$$

MTZ011-013-016-021-045-047-050-051-201800-
NORTH CENTRAL MONTANA

CITY           SKY/WX    TMP DP  RH WIND       PRES   REMARKS
HAVRE          SUNNY     43  28  55 SW14      29.67F
LEWISTOWN      PTSUNNY   42  25  50 S5        29.71F
N BAR RANCH      N/A     46  16  29 SW15      29.74F
CHINOOK          N/A     43  28  56 W3        29.69F
DENTON           N/A     39  25  57 SE12G20   29.67F
FORT BENTON      N/A     46  27  46 MISG      29.69F
GEYSER         PTSUNNY   40  21  47 NE5       29.68F
GRASS RANGE      N/A     45  24  44 SE5       29.69F
JUDITH GAP     PTSUNNY   39  23  51 SW13      29.72F WCI  31
ROY              N/A     47  24  40 MISG      29.70F
STANFORD       CLOUDY    39  25  56 SE7       29.69F
WINIFRED         N/A     45  20  37 SW7       29.69F
$$

MTZ017>020-022>027-061-062-201800-
NORTHEAST MONTANA

CITY           SKY/WX    TMP DP  RH WIND       PRES   REMARKS
GLASGOW        SUNNY     41  31  67 W3        29.73F
JORDAN           N/A     44  30  57 W7        29.75F
SIDNEY         SUNNY     48  33  56 W15       29.74S
WOLF POINT     SUNNY     36  32  85 W10       29.75S WCI  28
PLENTYWOOD       N/A    N/A N/A N/A CALM      29.71R
POPLAR           N/A     36  32  87 W9        29.75S WCI  29
SCOBEY           N/A     42  31  65 SW13      29.70S
$$

MTZ028>42-056>058-201800-
SOUTHCENTRAL AND SOUTHEAST MONTANA

CITY           SKY/WX    TMP DP  RH WIND       PRES   REMARKS
BAKER          SUNNY     45  32  60 W15       29.79R
BILLINGS       CLOUDY    44  23  43 SW15      29.77F
LIVINGSTON     CLOUDY    47  27  45 SW21G37   29.71F
MILES CITY     SUNNY     47  28  47 W10       29.79F
BIG TIMBER     CLOUDY    43  23  45 S8        29.76F
EKALAKA          N/A     45  30  55 W10       29.80
FORSYTH          N/A     48  27  43 SW3       29.79S
HARLOWTON      PTSUNNY   35  24  64 S3        29.74F
LAUREL           N/A     46  21  37 SW10      29.77F
ROUNDUP          N/A     39  22  51 S7        29.70F
$$

REGIONAL REPORTS...DAKOTAS

CITY           SKY/WX    TMP DP  RH WIND       PRES   REMARKS
WILLISTON      MOSUNNY   41  32  70 CALM      29.72S
MINOT          CLOUDY    38  35  89 W12       29.69F WCI  30
DICKINSON      SUNNY     46  35  65 W20       29.72R
BEACH            N/A    N/A N/A N/A MISG        N/A
CROSBY           N/A     39  37  93 S7        29.70F
TIOGA            N/A     36  36 100 W7        29.71F WCI  30
WATFORD CITY     N/A     39  36  87 W10       29.73F
BISMARCK       CLOUDY    40  37  89 W12       29.72R
GRAND FORKS    LGT RAIN  39  36  89 W10       29.59F VSB 1/8
FARGO          LGT RAIN  50  49  96 SE10      29.58F FOG
BUFFALO SD       N/A     52  29  41 W24       29.73R
RAPID CITY     SUNNY     56  28  34 NW18      29.83R
$$

REGIONAL REPORTS...WYOMING/IDAHO/WASHINGTON

CITY           SKY/WX    TMP DP  RH WIND       PRES   REMARKS
GILLETTE       SUNNY     46  29  51 SW17      29.85S
SHERIDAN       SUNNY     47  24  40 SE18G28   29.81S
BUFFALO WY     SUNNY     49  22  34 SE14      29.83F
CODY           SUNNY     42  19  39 SE15      29.83F
YELLOWSTONE LA   N/A     27  26  96 CALM      29.89S
IDAHO FALLS    CLOUDY    40  35  83 SW14      29.91R
SALMON         CLOUDY    34  30  86 CALM      29.73R
BOISE          CLOUDY    50  36  58 SE23G32   29.72R
SPOKANE        FLURRIES  34  33  96 E7        29.54F WCI  28
$$

REGIONAL REPORTS...ALBERTA

CITY           SKY/WX    TMP DP  RH WIND       PRES   REMARKS
EDMONTON       CLOUDY    30  25  80 NW3       29.60S
CALGARY        FOG       25  23  93 NE6       29.54S VSB 3/8 WCI  18
LETHBRIDGE     PTSUNNY   41  25  52 SW14      29.58F
MEDICINE HAT   PTSUNNY   41  27  56 S7        29.61F
CARDSTON         N/A     39  25  56 E6          N/A
$$

REGIONAL REPORTS...SASKATCHEWAN

CITY           SKY/WX    TMP DP  RH WIND       PRES   REMARKS
SWIFT CURRENT  SUNNY     36  32  87 SW12      29.62S WCI  27
REGINA         PTSUNNY   36  32  87 W7        29.65F WCI  30
SASKATOON      CLOUDY    36  32  87 W7        29.61F WCI  30
CYPRESS HILLS    N/A     36  18  48 SW8         N/A  WCI  29
ASSINIBOIA       N/A     32  27  80 NW7         N/A  WCI  26
$$



USA.gov is the U.S. government's official web portal to all federal, state and local government web resources and services.